Location: Acheville
(50.3840°N, 2.8827°E)
Time: 19:25:27
(UTC+00:00)

Okean O Rocket - Pass Details

Date: 24 October 2021
Orbit: 623 x 644 km, 98.2° (Epoch: 07 December)

Event Time Altitude Azimuth Distance (km) Brightness Sun altitude
Rises 17:35:23 0° 155° (SSE) 2,895 4.8 -9.7°
Reaches altitude 10° 17:37:34 10° 153° (SSE) 1,995 4.0 -10.0°
Maximum altitude 17:41:51 65° 72° (ENE) 695 1.6 -10.7°
Drops below altitude 10° 17:46:12 10° 351° (N) 2,019 4.2 -11.4°
Sets 17:48:26 0° 348° (NNW) 2,935 5.1 -11.7°
